Weather in Cuenca

Ecuador     2°53′52″S   79°01′33″W
temp.,
°C
wind,
m/s
gust,
m/s
humid.,
%
clouds,
%
prec.,
mm/h
press.,
hPa
HPBL,
m
4 march, thu
thu401:00+9s019398 0.3 101522
04:00+7sw019488 0.0 101422
07:00+8ene119693 0.0 101525
10:00+14e236937 0.1 1016927
13:00+17ese346254 0.9 10121271
16:00+16se337290 2.0 1010952
19:00+12ssw228991 3.8 101126
22:00+10s229797 0.6 101488
5 march, fri
fri501:00+9se119592 1.1 101455
04:00+10ese1196100 0.0 1013130
07:00+10ene1193100 0.1 1014130
10:00+14ene227194 0.1 1015740
13:00+17se336764 1.9 10111039
16:00+16s237599 5.0 1008758
19:00+11ssw239498 9.3 101192
22:00+9s0194100 0.8 101322
6 march, sat
sat601:00+9ene0196100 0.9 101326
04:00+10e1196100 0.0 101299
07:00+10ene1294100 0.1 1013138
10:00+14ne227790 0.3 1014709
13:00+14ese338082 2.3 1012633
16:00+14ese227992 1.8 1009649
19:00+11ese119196 3.1 101123
22:00+10e129594 0.4 101437
7 march, sun
sun701:00+10e119897 1.4 1013117
04:00+10ne2298100 0.4 1012137
07:00+10ne2297100 1.5 1014173
10:00+13e2285100 1.0 1015492
13:00+15ese337695 3.2 1012827
16:00+15ese337683 3.1 1010695
19:00+11ese229385 5.4 101341
22:00+11ese2297100 0.9 1015125
8 march, mon
mon801:00+10wnw1299100 7.4 1015109
04:00+10ne1196100 0.6 101390
07:00+10e1197100 1.8 1015124
10:00+10nne1195100 0.9 1016180
13:00+12ne1187100 1.4 1013314
16:00+15ene227580 1.1 1011622
19:00+12ese129173 3.9 101326
22:00+10ese119498 0.6 101523